Weather History for Grand Island, NE

Change the Weather History Date:

Tuesday, May 22, 2012

  Actual Average Record
Temperature  
Mean Temperature 75 °F 63 °F  
Max Temperature 90 °F 75 °F 97 °F (1964)
Min Temperature 59 °F 52 °F 29 °F (1963)
Degree Days  
Heating Degree Days 0 4  
Month to date heating degree days 50 145  
Since 1 July heating degree days 5026 6147  
Cooling Degree Days 10 2  
Month to date cooling degree days 97 29  
Year to date cooling degree days 142 40  
Growing Degree Days 24 (Base 50)    
Moisture  
Dew Point 50 °F    
Average Humidity 45    
Maximum Humidity 60    
Minimum Humidity 29    
Precipitation  
Precipitation T in 0.15 in 1.57 in (1922)
Month to date precipitation 0.41 3.04  
Year to date precipitation 3.86 8.58  
Snow  
Snow 0.00 in 0.00 in T in (1949)
Month to date snowfall 0.0 0.1  
Since 1 July snowfall 20.1 29.1  
Snow Depth 0.00 in    
Sea Level Pressure  
Sea Level Pressure 29.79 in    
Wind  
Wind Speed 22 mph (South)    
Max Wind Speed 32 mph    
Max Gust Speed 40 mph    
Visibility 10 miles    
Events Rain    
T = Trace of Precipitation, MM = Missing Value Source: NWS Daily Summary

Daily Weather History Graph

Daily Weather History Graph

Search for Another Location

Airport:

Trip Planner

Search our weather history database for the weather conditions in past years. The results will help you decide how hot, cold, wet, or windy it might be!

Date:

Astronomy

May. 22, 2012 Rise Set
Actual Time 6:09 AM CDT 8:51 PM CDT
Civil Twilight 5:37 AM CDT 9:23 PM CDT
Nautical Twilight 4:57 AM CDT 10:03 PM CDT
Astronomical Twilight 4:11 AM CDT 10:49 PM CDT
Moon 7:20 AM CDT (5/22) 10:30 PM CDT (5/22)
Length of Visible Light 15h 46m
Length of Day
14h 42m
Waxing Crescent, 3% of the Moon is Illuminated
May 22
Waxing Crescent
May 28
First Quarter
Jun 4
Full
Jun 11
Last Quarter
Jun 19
New

Hourly Weather History & Observations

Time (CDT) Temp. Heat Index Dew Point Humidity Pressure Visibility Wind Dir Wind Speed Gust Speed Precip Events Conditions
12:53 AM 63.0 °F - 41.0 °F 45% 30.00 in 10.0 mi SSE 18.4 mph - N/A   Clear
1:53 AM 62.1 °F - 43.0 °F 50% 30.00 in 10.0 mi South 16.1 mph - N/A   Clear
2:53 AM 61.0 °F - 45.0 °F 56% 29.97 in 10.0 mi South 20.7 mph - 0.00 in Rain Light Rain
3:53 AM 61.0 °F - 46.0 °F 58% 29.94 in 10.0 mi South 21.9 mph - 0.00 in   Clear
4:53 AM 62.1 °F - 46.0 °F 56% 29.95 in 10.0 mi South 15.0 mph - N/A   Partly Cloudy
5:53 AM 61.0 °F - 46.9 °F 60% 29.94 in 10.0 mi South 12.7 mph 21.9 mph N/A   Scattered Clouds
6:53 AM 62.1 °F - 46.9 °F 58% 29.93 in 10.0 mi South 17.3 mph - N/A   Partly Cloudy
7:53 AM 63.0 °F - 46.9 °F 56% 29.93 in 10.0 mi South 20.7 mph 26.5 mph N/A   Clear
8:53 AM 64.9 °F - 48.0 °F 54% 29.91 in 10.0 mi South 23.0 mph 28.8 mph N/A   Partly Cloudy
9:53 AM 72.0 °F - 50.0 °F 46% 29.88 in 10.0 mi South 21.9 mph 29.9 mph N/A   Clear
10:53 AM 75.9 °F - 53.1 °F 45% 29.85 in 10.0 mi South 25.3 mph 29.9 mph N/A   Clear
11:53 AM 80.1 °F 80.0 °F 54.0 °F 40% 29.82 in 10.0 mi SSW 24.2 mph 29.9 mph N/A   Clear
12:53 PM 84.0 °F 82.5 °F 53.1 °F 34% 29.78 in 10.0 mi South 23.0 mph 29.9 mph N/A   Clear
1:53 PM 86.0 °F 84.0 °F 53.1 °F 32% 29.74 in 10.0 mi South 26.5 mph 36.8 mph N/A   Clear
2:53 PM 88.0 °F 85.7 °F 53.1 °F 30% 29.70 in 10.0 mi South 27.6 mph 36.8 mph N/A   Clear
3:53 PM 90.0 °F 87.7 °F 54.0 °F 29% 29.67 in 10.0 mi South 23.0 mph 34.5 mph N/A   Clear
4:53 PM 90.0 °F 87.7 °F 54.0 °F 29% 29.64 in 10.0 mi South 24.2 mph 34.5 mph N/A   Clear
5:53 PM 88.0 °F 85.7 °F 53.1 °F 30% 29.62 in 10.0 mi South 29.9 mph 39.1 mph N/A   Clear
6:53 PM 84.9 °F 83.3 °F 54.0 °F 34% 29.60 in 10.0 mi South 25.3 mph 36.8 mph N/A   Clear
7:53 PM 82.9 °F 81.9 °F 54.0 °F 37% 29.60 in 10.0 mi South 24.2 mph 33.4 mph N/A   Clear
8:53 PM 80.1 °F 80.0 °F 54.0 °F 40% 29.59 in 10.0 mi South 21.9 mph 28.8 mph N/A   Clear
9:53 PM 77.0 °F - 54.0 °F 45% 29.58 in 10.0 mi South 21.9 mph 34.5 mph N/A   Clear
10:53 PM 75.0 °F - 53.1 °F 46% 29.57 in 10.0 mi South 21.9 mph 32.2 mph N/A   Clear
11:53 PM 73.0 °F - 51.1 °F 46% 29.56 in 10.0 mi SSE 20.7 mph 29.9 mph N/A   Clear